User: anonymous   Login
Location: Chervonnoye
(48.6000°N, 34.4000°E)
Time: 19:04:23
(UTC+00:00)
Language:

KAITUO 1B - Orbit

View from above orbital plane
View from above orbital plane
View from above satellite
View from above satellite

Ground track
Ground track

The orbit data is extracted from the following two-line orbital elements,

1 40912U 15049P   21341.21599861  .00003800  00000-0  16637-3 0  9994
2 40912  97.4430 349.0773 0012077 256.3663 168.8767 15.22590213344471
Epoch (UTC): 07 December 2021 05:11:02
Eccentricity: 0.0012077
inclination: 97.4430°
perigee height: 490 km
apogee height: 506 km
right ascension of ascending node: 349.0773°
argument of perigee: 256.3663°
revolutions per day: 15.22590213
mean anomaly at epoch: 168.8767°
orbit number at epoch: 34447

The dashed part of the orbit path shows where the satellite is in the earth's shadow,  

DLR